Weather History for Rawlins, WY

Change the Weather History Date:

Friday, September 27, 2013

  Actual Average Record
Temperature  
Mean Temperature 38 °F 51 °F  
Max Temperature 42 °F 65 °F 82 °F (2001)
Min Temperature 33 °F 36 °F 16 °F (1996)
Degree Days  
Heating Degree Days 27 14  
Month to date heating degree days 169 246  
Since 1 July heating degree days 177 339  
Cooling Degree Days 0 0  
Month to date cooling degree days 49 2  
Year to date cooling degree days 371 183  
Moisture  
Dew Point 33 °F    
Average Humidity 82    
Maximum Humidity 100    
Minimum Humidity 64    
Precipitation  
Precipitation 0.26 in 0.03 in 0.51 in (1972)
Month to date precipitation 2.47 0.87  
Year to date precipitation 6.24 7.42  
Sea Level Pressure  
Sea Level Pressure 29.87 in    
Wind  
Wind Speed 12 mph (WNW)    
Max Wind Speed 28 mph    
Max Gust Speed 35 mph    
Visibility 9 miles    
Events Rain    
T = Trace of Precipitation, MM = Missing Value Source: NWS Daily Summary

Daily Weather History Graph

Daily Weather History Graph

Search for Another Location

Airport:

Trip Planner

Search our weather history database for the weather conditions in past years. The results will help you decide how hot, cold, wet, or windy it might be!

Date:

Astronomy

Sep. 27, 2013 Rise Set
Actual Time 7:01 AM MDT 6:56 PM MDT
Civil Twilight 6:34 AM MDT 7:24 PM MDT
Nautical Twilight 6:01 AM MDT 7:56 PM MDT
Astronomical Twilight 5:28 AM MDT 8:29 PM MDT
Moon No Moon Rise 2:41 PM MDT (9/27)
Length of Visible Light 12h 50m
Length of Day
11h 55m
Last Quarter, 44% of the Moon is Illuminated
Sep 27
Last Quarter
Oct 4
New
Oct 11
First Quarter
Oct 18
Full
Oct 26
Last Quarter

Hourly Weather History & Observations

Time (MDT) Temp. Windchill Dew Point Humidity Pressure Visibility Wind Dir Wind Speed Gust Speed Precip Events Conditions
12:14 AM 41.0 °F 32.5 °F 37.4 °F 87% 29.85 in 10.0 mi WNW 17.3 mph - N/A   Overcast
12:29 AM 41.0 °F 34.3 °F 37.4 °F 87% 29.85 in 10.0 mi WNW 11.5 mph - N/A   Overcast
12:37 AM 39.2 °F 31.6 °F 35.6 °F 87% 29.85 in 10.0 mi WNW 12.7 mph - N/A   Overcast
12:53 AM 39.9 °F 33.4 °F 36.0 °F 86% 29.70 in 10.0 mi WNW 10.4 mph - N/A   Overcast
1:53 AM 37.0 °F 27.4 °F 33.1 °F 86% 29.71 in 10.0 mi NNW 17.3 mph - 0.00 in Rain Light Rain
2:00 AM 35.6 °F 25.9 °F 32.0 °F 87% 29.88 in 10.0 mi NNW 16.1 mph 25.3 mph 0.00 in Rain Light Rain
2:53 AM 37.9 °F 34.4 °F 36.0 °F 93% 29.66 in 10.0 mi ENE 4.6 mph - 0.00 in   Overcast
3:53 AM 35.1 °F 28.6 °F 33.1 °F 92% 29.67 in 6.0 mi ENE 8.1 mph - 0.02 in Rain Rain
4:33 AM 35.6 °F 32.8 °F 33.8 °F 93% 29.85 in 8.0 mi East 3.5 mph - 0.02 in Rain Light Rain
4:53 AM 34.0 °F 31.0 °F 33.1 °F 96% 29.70 in 5.0 mi ENE 3.5 mph - 0.05 in Rain Light Rain
5:01 AM 35.6 °F 32.8 °F 33.8 °F 93% 29.86 in 8.0 mi North 3.5 mph - 0.00 in Rain Light Rain
5:39 AM 35.6 °F 31.7 °F 33.8 °F 93% 29.84 in 10.0 mi NNW 4.6 mph - 0.02 in Rain Light Rain
5:53 AM 35.1 °F - 34.0 °F 96% 29.71 in 10.0 mi Calm Calm - 0.02 in Rain Light Rain
6:53 AM 34.0 °F 29.8 °F 33.1 °F 96% 29.73 in 10.0 mi NE 4.6 mph - 0.03 in Rain Light Rain
7:11 AM 33.8 °F 29.6 °F 33.8 °F 100% 29.86 in 10.0 mi NNE 4.6 mph - 0.00 in   Overcast
7:25 AM 33.8 °F 27.0 °F 33.8 °F 100% 29.86 in 10.0 mi East 8.1 mph - 0.00 in Rain Light Rain
7:38 AM 33.8 °F 26.4 °F 33.8 °F 100% 29.86 in 10.0 mi East 9.2 mph - 0.00 in   Overcast
7:51 AM 33.8 °F 26.4 °F 32.0 °F 93% 29.87 in 10.0 mi ENE 9.2 mph - 0.00 in   Overcast
7:53 AM 34.0 °F 27.2 °F 32.0 °F 92% 29.75 in 10.0 mi NE 8.1 mph - 0.00 in   Overcast
8:53 AM 35.1 °F 32.2 °F 33.1 °F 92% 29.75 in 10.0 mi NE 3.5 mph - N/A   Overcast
9:53 AM 37.0 °F 33.3 °F 35.1 °F 93% 29.75 in 9.0 mi East 4.6 mph - N/A   Overcast
10:13 AM 37.4 °F 32.1 °F 35.6 °F 93% 29.86 in 10.0 mi ENE 6.9 mph - 0.00 in Rain Light Rain
10:37 AM 39.2 °F - 37.4 °F 93% 29.85 in 10.0 mi Calm Calm - 0.00 in   Overcast
10:44 AM 39.2 °F - 37.4 °F 93% 29.87 in 9.0 mi Calm Calm - 0.00 in Rain Light Rain
10:51 AM 37.4 °F 34.9 °F 35.6 °F 93% 29.88 in 2.5 mi Variable 3.5 mph - 0.03 in Rain Heavy Rain
10:53 AM 37.9 °F 32.1 °F 36.0 °F 93% 29.80 in 1.8 mi WSW 8.1 mph - 0.05 in Rain Heavy Rain
11:03 AM 35.6 °F 30.7 °F 33.8 °F 93% 29.88 in 1.0 mi WSW 5.8 mph - 0.06 in Rain Heavy Rain
11:10 AM 35.6 °F 27.1 °F 33.8 °F 93% 29.88 in 2.0 mi WSW 12.7 mph 16.1 mph 0.08 in Rain Rain
11:14 AM 35.6 °F 28.6 °F 33.8 °F 93% 29.88 in 3.0 mi WSW 9.2 mph - 0.09 in Rain Rain
11:37 AM 37.4 °F 29.3 °F 35.6 °F 93% 29.88 in 10.0 mi WSW 12.7 mph - 0.09 in Rain Light Rain
11:53 AM 39.9 °F 32.1 °F 37.0 °F 89% 29.81 in 10.0 mi West 13.8 mph - 0.09 in   Mostly Cloudy
12:37 PM 41.0 °F 33.1 °F 35.6 °F 81% 29.88 in 10.0 mi WSW 15.0 mph 25.3 mph N/A   Mostly Cloudy
12:53 PM 41.0 °F 31.6 °F 35.1 °F 79% 29.82 in 10.0 mi WSW 20.7 mph 28.8 mph N/A   Mostly Cloudy
1:53 PM 39.9 °F 30.5 °F 33.1 °F 77% 29.85 in 10.0 mi WSW 19.6 mph - N/A   Overcast
2:51 PM 39.2 °F 29.8 °F 32.0 °F 75% 29.93 in 10.0 mi West 18.4 mph 23.0 mph 0.00 in   Overcast
2:53 PM 39.9 °F 30.5 °F 32.0 °F 73% 29.88 in 10.0 mi West 19.6 mph 24.2 mph 0.00 in   Overcast
3:06 PM 39.2 °F 29.3 °F 32.0 °F 75% 29.93 in 10.0 mi West 20.7 mph - N/A   Overcast
3:43 PM 39.2 °F 29.8 °F 32.0 °F 75% 29.94 in 10.0 mi West 18.4 mph - 0.00 in   Overcast
3:53 PM 42.1 °F 33.6 °F 33.1 °F 70% 29.89 in 10.0 mi West 18.4 mph - 0.00 in   Overcast
4:13 PM 39.2 °F 30.8 °F 32.0 °F 75% 29.96 in 10.0 mi West 15.0 mph 23.0 mph N/A   Overcast
4:53 PM 39.0 °F 30.3 °F 30.0 °F 70% 29.94 in 10.0 mi West 16.1 mph 24.2 mph N/A   Overcast
5:16 PM 39.2 °F 30.8 °F 30.2 °F 70% 29.99 in 10.0 mi WNW 15.0 mph - N/A   Overcast
5:27 PM 39.2 °F 29.8 °F 30.2 °F 70% 30.00 in 10.0 mi WNW 18.4 mph - N/A   Overcast
5:37 PM 39.2 °F 29.8 °F 28.4 °F 65% 30.00 in 10.0 mi West 18.4 mph - N/A   Overcast
5:53 PM 39.0 °F 30.6 °F 28.9 °F 67% 29.98 in 10.0 mi WNW 15.0 mph - N/A   Overcast
6:53 PM 37.0 °F 30.4 °F 30.0 °F 76% 30.00 in 10.0 mi West 9.2 mph - N/A   Clear
7:53 PM 37.0 °F 28.9 °F 32.0 °F 82% 30.02 in 10.0 mi WSW 12.7 mph - 0.00 in Rain Light Rain
8:53 PM 37.9 °F 27.9 °F 30.9 °F 76% 30.01 in 10.0 mi West 19.6 mph 28.8 mph 0.00 in   Scattered Clouds
9:53 PM 37.0 °F 28.5 °F 30.9 °F 79% 30.04 in 10.0 mi West 13.8 mph - N/A   Overcast
10:53 PM 36.0 °F 24.7 °F 28.9 °F 76% 30.04 in 10.0 mi WSW 21.9 mph 28.8 mph N/A   Scattered Clouds
11:53 PM 34.0 °F 22.1 °F 28.0 °F 79% 30.06 in 10.0 mi WSW 21.9 mph 31.1 mph N/A   Clear